FW9116 Weather Reports


Display with metric or nautical units.
time (UTC)temp
F
wind
direction
speed
MPH
gust
MPH
rain 1hr
in
rain 24hr
in
rain mn
in
humidity
%
barometer
mb
20260901204056 68 309 2.0 9.0 0.00 0.00 0.00 65 1011.0
20260901203557 68 222 2.0 7.0 0.00 0.00 0.00 66 1011.0
20260901203058 68 223 1.0 9.0 0.00 0.00 0.00 67 1011.0
20260901202555 67 149 2.0 9.0 0.00 0.00 0.00 68 1011.0
20260901202101 67 269 2.0 8.0 0.00 0.00 0.00 69 1011.1
20260901201603 66 184 1.0 10.0 0.00 0.00 0.00 69 1011.1
20260901201057 66 220 3.0 10.0 0.00 0.00 0.00 69 1011.1
20260901200600 66 179 2.0 6.0 0.00 0.00 0.00 70 1011.1
20260901200059 65 236 1.0 9.0 0.00 0.00 0.00 72 1011.2
20260901195554 65 213 3.0 9.0 0.00 0.00 0.00 71 1011.2
20260901195053 65 165 2.0 9.0 0.00 0.00 0.00 72 1011.1
20260901194606 65 266 4.0 9.0 0.00 0.00 0.00 72 1011.1
20260901194053 66 232 2.0 8.0 0.00 0.00 0.00 72 1011.3
20260901193557 66 0 1.0 7.0 0.00 0.00 0.00 71 1011.3
20260901193108 66 254 1.0 5.0 0.00 0.00 0.00 71 1011.4
20260901192557 66 275 1.0 4.0 0.00 0.00 0.00 71 1011.4
20260901192057 66 167 0.0 3.0 0.00 0.00 0.00 72 1011.4
20260901191615 65 0 0.0 5.0 0.00 0.00 0.00 74 1011.5
20260901191053 65 325 2.0 5.0 0.00 0.00 0.00 73 1011.5
20260901190553 65 275 2.0 6.0 0.00 0.00 0.00 73 1011.6
20260901190134 65 246 1.0 9.0 0.00 0.00 0.00 73 1011.5
20260901185554 65 173 3.0 9.0 0.00 0.00 0.00 74 1011.6
20260901185053 65 179 1.0 10.0 0.00 0.00 0.00 75 1011.7
20260901184600 64 169 3.0 10.0 0.00 0.00 0.00 75 1011.7
20260901184058 64 193 2.0 6.0 0.00 0.00 0.00 75 1011.8
20260901183557 64 151 2.0 6.0 0.00 0.00 0.00 75 1011.7
20260901183106 64 159 3.0 7.0 0.00 0.00 0.00 75 1011.7
20260901182553 64 160 2.0 7.0 0.00 0.00 0.00 76 1011.8
20260901182057 64 198 2.0 7.0 0.00 0.00 0.00 77 1011.8
20260901181604 64 148 3.0 7.0 0.00 0.00 0.00 77 1011.9
20260901181056 63 153 1.0 6.0 0.00 0.00 0.00 78 1011.9
20260901180557 63 171 2.0 7.0 0.00 0.00 0.00 78 1011.8
20260901180100 63 184 3.0 7.0 0.00 0.00 0.00 78 1011.8
20260901175557 63 181 2.0 7.0 0.00 0.00 0.00 80 1012.0
20260901175053 62 252 2.0 9.0 0.00 0.00 0.00 81 1012.0
20260901174602 62 182 3.0 9.0 0.00 0.00 0.00 82 1012.0
20260901174054 62 186 1.0 5.0 0.00 0.00 0.00 83 1011.9
20260901173554 61 260 0.0 5.0 0.00 0.00 0.00 83 1012.0
20260901173105 61 0 2.0 8.0 0.00 0.00 0.00 84 1012.0
20260901172554 61 261 1.0 8.0 0.00 0.00 0.00 84 1011.9
20260901172101 61 299 3.0 8.0 0.00 0.00 0.00 85 1011.9
20260901171635 61 248 0.0 5.0 0.00 0.00 0.00 86 1011.9
20260901171053 60 0 1.0 6.0 0.00 0.00 0.00 87 1011.8
20260901170553 60 177 2.0 6.0 0.00 0.00 0.00 87 1011.7
20260901170107 60 155 2.0 6.0 0.00 0.00 0.00 89 1011.8
20260901165556 60 185 1.0 4.0 0.00 0.00 0.00 89 1011.8
20260901165059 59 254 0.0 4.0 0.00 0.00 0.00 89 1011.8
20260901164613 59 0 1.0 5.0 0.00 0.00 0.00 89 1011.8
20260901164055 59 229 1.0 6.0 0.00 0.00 0.00 89 1011.8
20260901163557 59 173 1.0 7.0 0.00 0.00 0.00 88 1011.9
20260901163117 59 240 2.0 7.0 0.00 0.00 0.00 88 1011.9
20260901162554 59 248 1.0 4.0 0.00 0.00 0.00 88 1011.9
20260901162053 59 181 1.0 4.0 0.00 0.00 0.00 88 1011.9
20260901161605 59 0 0.0 4.0 0.00 0.00 0.00 87 1011.9
20260901161053 59 233 1.0 4.0 0.00 0.00 0.00 87 1011.9
20260901160555 59 259 1.0 9.0 0.00 0.00 0.00 86 1011.8
20260901155557 60 246 2.0 7.0 0.00 0.00 0.00 85 1011.8
20260901155059 59 255 1.0 6.0 0.00 0.00 0.00 85 1011.7
20260901154558 59 296 0.0 5.0 0.00 0.00 0.00 85 1011.8
20260901154054 59 241 1.0 5.0 0.00 0.00 0.00 85 1011.8
20260901153554 59 309 1.0 7.0 0.00 0.00 0.00 85 1011.7
20260901153104 59 0 2.0 8.0 0.00 0.00 0.00 85 1011.8
20260901152553 59 265 2.0 8.0 0.00 0.00 0.00 84 1011.7
20260901152053 59 246 2.0 8.0 0.00 0.00 0.00 84 1011.7
20260901151602 59 215 1.0 6.0 0.00 0.00 0.00 84 1011.6
20260901151055 59 264 2.0 6.0 0.00 0.00 0.00 84 1011.5
20260901150553 59 232 2.0 7.0 0.00 0.00 0.00 83 1011.5
20260901145554 59 248 1.0 4.0 0.00 0.00 0.00 83 1011.5
20260901145057 59 247 1.0 6.0 0.00 0.00 0.00 83 1011.4
20260901144603 59 289 1.0 8.0 0.00 0.00 0.00 83 1011.4
20260901144058 59 170 2.0 8.0 0.00 0.00 0.00 83 1011.3
20260901143556 59 247 2.0 7.0 0.00 0.00 0.00 83 1011.3
20260901143102 59 243 1.0 10.0 0.00 0.00 0.00 83 1011.3
20260901142556 59 257 2.0 10.0 0.00 0.00 0.00 83 1011.3
20260901142058 59 193 0.0 7.0 0.00 0.00 0.00 83 1011.3
20260901141602 59 261 1.0 7.0 0.00 0.00 0.00 83 1011.2
20260901141056 59 192 1.0 9.0 0.00 0.00 0.00 83 1011.2
20260901140553 59 184 1.0 9.0 0.00 0.00 0.00 83 1011.2
20260901140105 59 190 2.0 9.0 0.00 0.00 0.00 83 1011.1
20260901135554 59 202 2.0 6.0 0.00 0.00 0.00 83 1011.1
20260901135054 59 176 0.0 5.0 0.00 0.00 0.00 83 1011.1
20260901134608 59 159 2.0 5.0 0.00 0.00 0.00 83 1011.1
20260901134100 59 187 1.0 8.0 0.00 0.00 0.00 83 1011.1
20260901133600 59 252 2.0 8.0 0.00 0.00 0.00 84 1010.9
20260901133106 59 196 1.0 7.0 0.00 0.00 0.00 84 1011.0
20260901132556 59 171 2.0 6.0 0.00 0.00 0.00 84 1011.0
20260901132056 59 232 1.0 7.0 0.00 0.00 0.00 84 1011.0
20260901131615 59 253 0.0 7.0 0.00 0.00 0.00 84 1010.9
20260901131054 58 215 1.0 8.0 0.00 0.00 0.00 84 1010.9
20260901130554 58 212 1.0 8.0 0.00 0.00 0.00 84 1010.9
20260901130101 58 109 1.0 6.0 0.00 0.00 0.00 84 1010.9
20260901125557 59 168 2.0 6.0 0.00 0.00 0.00 84 1010.9
20260901125056 59 184 2.0 7.0 0.00 0.00 0.00 84 1010.9
20260901124605 59 159 1.0 7.0 0.00 0.00 0.00 84 1010.9
20260901124054 59 202 3.0 8.0 0.00 0.00 0.00 84 1010.8
20260901123557 59 176 3.0 8.0 0.00 0.00 0.00 84 1010.8
20260901123106 59 135 1.0 7.0 0.00 0.00 0.00 84 1010.8
20260901122557 58 158 1.0 7.0 0.00 0.00 0.00 84 1010.9
20260901122056 58 200 2.0 6.0 0.00 0.00 0.00 84 1010.9
20260901121608 58 0 1.0 7.0 0.00 0.00 0.00 84 1010.8
20260901121055 58 0 2.0 7.0 0.00 0.00 0.00 84 1010.9
20260901120554 58 0 0.0 6.0 0.00 0.00 0.00 85 1010.9
20260901120121 58 179 2.0 7.0 0.00 0.00 0.00 85 1010.9
20260901115554 58 206 0.0 7.0 0.00 0.00 0.00 85 1010.9
20260901115054 58 178 2.0 7.0 0.00 0.00 0.00 85 1010.9
20260901114621 58 187 2.0 8.0 0.00 0.00 0.00 85 1010.9
20260901114059 58 0 1.0 8.0 0.00 0.00 0.00 85 1010.9
20260901113556 58 0 3.0 8.0 0.00 0.00 0.00 85 1011.0
20260901113104 58 175 1.0 8.0 0.00 0.00 0.00 85 1010.9
20260901112556 58 197 0.0 7.0 0.00 0.00 0.00 85 1010.9
20260901112054 58 252 2.0 8.0 0.00 0.00 0.00 85 1010.8
20260901111610 58 199 3.0 8.0 0.00 0.00 0.00 85 1010.8
20260901111054 58 191 1.0 8.0 0.00 0.00 0.00 85 1010.8
20260901110555 58 195 2.0 8.0 0.00 0.00 0.00 85 1010.7
20260901110105 58 189 1.0 8.0 0.00 0.00 0.00 85 1010.8
20260901105554 58 163 1.0 4.0 0.00 0.00 0.00 85 1010.8
20260901105058 58 175 1.0 4.0 0.00 0.00 0.00 85 1010.7
20260901104606 58 196 0.0 4.0 0.00 0.00 0.00 84 1010.7
20260901104057 58 219 0.0 4.0 0.00 0.00 0.00 84 1010.8
20260901103553 58 296 0.0 6.0 0.00 0.00 0.00 84 1010.7
20260901103102 58 59 0.0 7.0 0.00 0.00 0.00 84 1010.7
20260901102557 58 0 2.0 7.0 0.00 0.00 0.00 84 1010.6
20260901102057 58 163 1.0 7.0 0.00 0.00 0.00 84 1010.5
20260901101601 58 196 1.0 7.0 0.00 0.00 0.00 83 1010.6
20260901101056 58 187 1.0 7.0 0.00 0.00 0.00 83 1010.6
20260901100558 58 158 1.0 6.0 0.00 0.00 0.00 83 1010.6
20260901095554 59 170 1.0 6.0 0.00 0.00 0.00 82 1010.6
20260901095054 59 0 1.0 7.0 0.00 0.00 0.00 82 1010.5
20260901094603 59 170 1.0 7.0 0.00 0.00 0.00 82 1010.6
20260901094055 59 179 3.0 7.0 0.00 0.00 0.00 82 1010.5
20260901093557 59 167 1.0 7.0 0.00 0.00 0.00 82 1010.5
20260901093102 59 180 1.0 12.0 0.00 0.00 0.00 82 1010.5
20260901092557 59 161 0.0 12.0 0.00 0.00 0.00 81 1010.3
20260901092054 59 164 2.0 9.0 0.00 0.00 0.00 81 1010.3
20260901091608 59 0 1.0 9.0 0.00 0.00 0.00 81 1010.3
20260901091056 60 239 1.0 6.0 0.00 0.00 0.00 81 1010.1
20260901090601 60 0 1.0 6.0 0.00 0.00 0.00 81 1010.1
20260901090111 60 0 0.0 5.0 0.00 0.00 0.00 80 1010.2
20260901085556 60 214 0.0 2.0 0.00 0.00 0.00 80 1010.0
20260901085058 60 10 0.0 3.0 0.00 0.00 0.00 80 1010.0
20260901084606 60 10 0.0 6.0 0.00 0.00 0.00 80 1009.9
20260901084054 60 186 3.0 6.0 0.00 0.00 0.00 80 1009.9
20260901083555 60 0 0.0 5.0 0.00 0.00 0.00 80 1010.0
20260901083101 60 148 1.0 4.0 0.00 0.00 0.00 79 1010.0
20260901082554 60 0 1.0 5.0 0.00 0.00 0.00 79 1009.8
20260901082055 60 151 1.0 5.0 0.00 0.00 0.00 79 1010.0
20260901081602 61 145 2.0 4.0 0.00 0.00 0.00 79 1010.0
20260901081054 61 56 0.0 3.0 0.00 0.00 0.00 79 1009.9
20260901080556 61 0 0.0 7.0 0.00 0.00 0.00 79 1010.0
20260901080112 61 0 0.0 11.0 0.00 0.00 0.00 79 1009.8
20260901075555 61 181 2.0 11.0 0.00 0.00 0.00 79 1009.7
20260901075056 61 0 4.0 11.0 0.00 0.00 0.00 79 1009.7
20260901074600 61 244 1.0 8.0 0.00 0.00 0.00 78 1009.7
20260901074059 61 258 1.0 3.0 0.00 0.00 0.00 78 1009.6
20260901073619 61 0 1.0 5.0 0.00 0.00 0.00 78 1009.5
20260901073059 62 0 1.0 7.0 0.00 0.00 0.00 77 1009.6
20260901072554 62 170 1.0 7.0 0.00 0.00 0.00 77 1009.6
20260901072054 62 231 2.0 14.0 0.00 0.00 0.00 77 1009.5
20260901071605 62 242 3.0 14.0 0.00 0.00 0.00 76 1009.7
20260901071055 62 180 5.0 11.0 0.00 0.00 0.00 76 1009.5
20260901070556 63 188 2.0 6.0 0.00 0.00 0.00 75 1009.4
20260901070105 63 174 1.0 6.0 0.00 0.00 0.00 74 1009.4
20260901065601 63 0 2.0 6.0 0.00 0.00 0.00 74 1009.4
20260901065057 63 0 2.0 9.0 0.00 0.00 0.00 74 1009.3
20260901064611 64 229 3.0 11.0 0.00 0.00 0.00 73 1009.3
20260901064056 64 201 4.0 11.0 0.00 0.00 0.00 73 1009.2
20260901063556 64 253 3.0 11.0 0.00 0.00 0.00 72 1009.1
20260901063125 64 171 4.0 11.0 0.00 0.00 0.00 72 1009.1
20260901062557 64 273 2.0 11.0 0.00 0.00 0.00 72 1008.9
20260901062057 65 192 1.0 12.0 0.00 0.00 0.00 72 1008.9
20260901061603 65 319 3.0 12.0 0.00 0.00 0.00 71 1008.8
20260901061057 65 190 2.0 12.0 0.00 0.00 0.00 71 1008.8
20260901060559 65 212 3.0 12.0 0.00 0.00 0.00 70 1008.7
20260901060059 66 198 3.0 8.0 0.00 0.00 0.00 69 1008.6
20260901055554 66 172 1.0 8.0 0.00 0.00 0.00 69 1008.6
20260901055054 66 201 2.0 9.0 0.00 0.00 0.00 68 1008.5
20260901054603 67 205 1.0 9.0 0.00 0.00 0.00 68 1008.5
20260901054057 67 194 1.0 9.0 0.00 0.00 0.00 67 1008.5
20260901053556 67 169 1.0 9.0 0.00 0.00 0.00 66 1008.3
20260901053114 68 172 3.0 9.0 0.00 0.00 0.00 65 1008.3
20260901052554 68 206 3.0 9.0 0.00 0.00 0.00 64 1008.3
20260901052058 68 200 4.0 9.0 0.00 0.00 0.00 64 1008.2
20260901051601 69 165 3.0 9.0 0.00 0.00 0.00 63 1008.2
20260901051054 69 158 2.0 8.0 0.00 0.00 0.00 63 1008.2
20260901050554 70 0 3.0 8.0 0.00 0.00 0.00 62 1008.1
20260901050059 70 200 3.0 7.0 0.00 0.00 0.00 62 1008.0
20260901045554 70 175 2.0 7.0 0.00 0.00 0.00 62 1008.0
20260901045057 71 193 4.0 7.0 0.00 0.00 0.00 61 1008.0
20260901044601 71 200 2.0 5.0 0.00 0.00 0.00 61 1008.0
20260901044054 71 192 2.0 5.0 0.00 0.00 0.00 59 1008.0
20260901043557 72 206 0.0 4.0 0.00 0.00 0.00 58 1007.9
20260901043105 72 0 1.0 4.0 0.00 0.00 0.00 57 1007.8
20260901042601 72 0 1.0 4.0 0.00 0.00 0.00 55 1007.8
20260901042100 73 296 0.0 2.0 0.00 0.00 0.00 54 1007.6
20260901041557 73 0 0.0 3.0 0.00 0.00 0.00 53 1007.5
20260901041054 73 0 0.0 3.0 0.00 0.00 0.00 53 1007.4
20260901040554 73 259 1.0 3.0 0.00 0.00 0.00 52 1007.4
20260901040104 74 0 0.0 0.0 0.00 0.00 0.00 52 1007.3
20260901035554 74 0 0.0 0.0 0.00 0.00 0.00 51 1007.3
20260901035053 74 0 0.0 0.0 0.00 0.00 0.00 51 1007.2
20260901034600 75 0 0.0 0.0 0.00 0.00 0.00 51 1007.1
20260901034054 75 0 0.0 0.0 0.00 0.00 0.00 50 1007.1
20260901033554 75 0 0.0 0.0 0.00 0.00 0.00 50 1007.1
20260901033058 75 0 0.0 0.0 0.00 0.00 0.00 50 1007.1
20260901032557 76 0 0.0 0.0 0.00 0.00 0.00 49 1006.9
20260901032054 76 0 0.0 0.0 0.00 0.00 0.00 49 1006.9
20260901031556 76 0 0.0 0.0 0.00 0.00 0.00 48 1006.7
20260901031054 77 0 0.0 0.0 0.00 0.00 0.00 48 1006.7
20260901030554 77 0 0.0 0.0 0.00 0.00 0.00 48 1006.6
20260901030058 77 0 0.0 0.0 0.00 0.00 0.00 47 1006.6
20260901025554 78 0 0.0 0.0 0.00 0.00 0.00 47 1006.7
20260901025054 78 0 0.0 0.0 0.00 0.00 0.00 47 1006.8
20260901024604 78 0 0.0 0.0 0.00 0.00 0.00 47 1006.8
20260901024054 78 0 0.0 3.0 0.00 0.00 0.00 46 1006.8
20260901023554 79 0 0.0 3.0 0.00 0.00 0.00 46 1006.8
20260901023103 79 0 0.0 4.0 0.00 0.00 0.00 46 1006.9
20260901022554 79 0 0.0 4.0 0.00 0.00 0.00 46 1006.8
20260901022056 79 165 0.0 4.0 0.00 0.00 0.00 45 1006.8
20260901021600 80 0 1.0 5.0 0.00 0.00 0.00 45 1006.8
20260901021058 80 0 2.0 7.0 0.00 0.00 0.00 44 1006.8
20260901020555 80 217 1.0 7.0 0.00 0.00 0.00 44 1006.8
20260901015554 81 204 2.0 7.0 0.00 0.00 0.00 42 1006.7
20260901015054 81 246 1.0 7.0 0.00 0.00 0.00 42 1006.7
20260901014559 82 200 2.0 6.0 0.00 0.00 0.00 42 1006.6
20260901014058 82 188 3.0 6.0 0.00 0.00 0.00 41 1006.6
20260901013554 82 0 1.0 5.0 0.00 0.00 0.00 40 1006.6
20260901013107 82 196 2.0 5.0 0.00 0.00 0.00 40 1006.6
20260901012553 82 0 0.0 6.0 0.00 0.00 0.00 41 1006.6
20260901012053 82 254 0.0 6.0 0.00 0.00 0.00 40 1006.8
20260901011558 82 198 1.0 5.0 0.00 0.00 0.00 40 1006.8
20260901011056 82 219 1.0 7.0 0.00 0.00 0.00 40 1006.8
20260901010615 83 189 3.0 7.0 0.00 0.00 0.00 40 1006.8
20260901010100 83 184 2.0 7.0 0.00 0.00 0.00 40 1006.7
20260901005556 84 188 2.0 8.0 0.00 0.00 0.00 40 1006.8
20260901005053 83 253 2.0 10.0 0.00 0.00 0.00 40 1006.9
20260901004606 84 154 2.0 10.0 0.00 0.00 0.00 40 1006.9
20260901004057 84 265 2.0 8.0 0.00 0.00 0.00 40 1006.8
20260901003554 84 244 3.0 8.0 0.00 0.00 0.00 40 1006.8
20260901003107 84 221 2.0 7.0 0.00 0.00 0.00 40 1006.9
20260901002554 84 268 1.0 9.0 0.00 0.00 0.00 41 1006.9
20260901002054 84 183 3.0 9.0 0.00 0.00 0.00 41 1006.9
20260901001558 84 207 3.0 9.0 0.00 0.00 0.00 41 1006.9
20260901001054 84 173 3.0 9.0 0.00 0.00 0.00 41 1006.9
20260901000554 84 194 3.0 9.0 0.00 0.00 0.00 41 1007.0
20260901000103 84 169 2.0 8.0 0.00 0.00 0.00 41 1006.9
20260831235556 84 254 2.0 8.0 0.00 0.00 0.00 41 1006.9
20260831235056 85 252 3.0 8.0 0.00 0.00 0.00 41 1007.0
20260831234601 85 236 2.0 6.0 0.00 0.00 0.00 40 1006.9
20260831234056 85 173 2.0 7.0 0.00 0.00 0.00 40 1007.0
20260831233554 85 198 3.0 8.0 0.00 0.00 0.00 40 1007.0
20260831233109 86 192 2.0 9.0 0.00 0.00 0.00 39 1007.0
20260831232554 86 0 4.0 9.0 0.00 0.00 0.00 40 1007.1
20260831232054 86 157 4.0 8.0 0.00 0.00 0.00 39 1007.0
20260831231613 87 128 1.0 7.0 0.00 0.00 0.00 39 1007.0
20260831231056 87 274 1.0 6.0 0.00 0.00 0.00 38 1006.9
20260831230554 87 186 1.0 5.0 0.00 0.00 0.00 37 1007.0
20260831230101 87 48 0.0 8.0 0.00 0.00 0.00 38 1007.0
20260831225554 86 217 3.0 8.0 0.00 0.00 0.00 38 1007.1
20260831225054 86 264 2.0 5.0 0.00 0.00 0.00 37 1007.1
20260831224623 86 153 1.0 6.0 0.00 0.00 0.00 37 1007.2
20260831224054 86 298 2.0 6.0 0.00 0.00 0.00 37 1007.3
20260831223555 86 175 1.0 6.0 0.00 0.00 0.00 36 1007.4
20260831223107 85 0 1.0 4.0 0.00 0.00 0.00 37 1007.3
20260831222553 85 61 1.0 6.0 0.00 0.00 0.00 36 1007.3
20260831222055 85 196 1.0 6.0 0.00 0.00 0.00 37 1007.4
20260831221604 84 116 3.0 6.0 0.00 0.00 0.00 38 1007.4
20260831221054 85 192 2.0 5.0 0.00 0.00 0.00 38 1007.5
20260831220557 84 181 1.0 7.0 0.00 0.00 0.00 40 1007.4
20260831220103 84 118 2.0 7.0 0.00 0.00 0.00 39 1007.4
20260831215555 84 336 3.0 7.0 0.00 0.00 0.00 38 1007.5
20260831215055 84 346 2.0 7.0 0.00 0.00 0.00 39 1007.5
20260831214601 84 0 1.0 3.0 0.00 0.00 0.00 39 1007.6
20260831214054 84 0 0.0 4.0 0.00 0.00 0.00 39 1007.5
20260831213554 83 86 1.0 6.0 0.00 0.00 0.00 39 1007.6
20260831213100 83 0 2.0 6.0 0.00 0.00 0.00 39 1007.8
20260831212554 84 244 3.0 5.0 0.00 0.00 0.00 38 1007.9
20260831212054 84 134 1.0 4.0 0.00 0.00 0.00 39 1007.9
20260831211609 84 346 0.0 4.0 0.00 0.00 0.00 40 1008.0
20260831211055 83 244 1.0 4.0 0.00 0.00 0.00 41 1008.1
20260831210554 82 275 0.0 4.0 0.00 0.00 0.00 43 1008.1
20260831210100 82 326 0.0 6.0 0.00 0.00 0.00 43 1008.2
20260831205556 81 5 1.0 6.0 0.00 0.00 0.00 44 1008.2
20260831205055 80 0 2.0 6.0 0.00 0.00 0.00 45 1008.2
20260831204601 80 11 1.0 8.0 0.00 0.00 0.00 46 1008.4